User: anonymous   Login
Location: Saluda
(35.2377°N, 82.3468°W)
Time: 15:05:10
(UTC+00:00)
Language:

Explorer 7 - Orbit

View from above orbital plane
View from above orbital plane
View from above satellite
View from above satellite

Ground track
Ground track

The orbit data is extracted from the following two-line orbital elements,

1    22U 59009A   22276.13359889  .00004069  00000-0  30875-3 0  9997
2    22  50.2817 127.0339 0133611 223.0930 135.9497 14.97502958350723
Epoch (UTC): 03 October 2022 03:12:22
Eccentricity: 0.0133611
inclination: 50.2817°
perigee height: 482 km
apogee height: 667 km
right ascension of ascending node: 127.0339°
argument of perigee: 223.0930°
revolutions per day: 14.97502958
mean anomaly at epoch: 135.9497°
orbit number at epoch: 35072

The dashed part of the orbit path shows where the satellite is in the earth's shadow,  

DLR